FW7828 Weather Reports


time (UTC)temp
C
wind
direction
speed
KPH
gust
KPH
rain 1hr
cm
rain 24hr
cm
rain mn
cm
humidity
%
barometer
mb
20260901210254 32 5 0.0 0.0 0.00 0.00 0.00 75 1014.2
20260901205750 32 272 0.0 0.0 0.00 0.00 0.00 75 1014.4
20260901205250 32 143 0.0 0.0 0.00 0.00 0.00 70 1014.5
20260901204746 33 358 0.0 0.0 0.00 0.00 0.00 74 1014.6
20260901204242 33 4 0.0 0.0 0.00 0.00 0.00 71 1014.6
20260901203737 33 209 0.0 1.6 0.00 0.00 0.00 68 1014.5
20260901203236 35 136 1.6 3.2 0.00 0.00 0.00 61 1014.4
20260901202736 35 266 0.0 0.0 0.00 0.00 0.00 64 1014.8
20260901202232 35 268 0.0 0.0 0.00 0.00 0.00 63 1014.6
20260901201727 35 264 0.0 0.0 0.00 0.00 0.00 63 1014.6
20260901201227 35 246 0.0 0.0 0.00 0.00 0.00 64 1014.8
20260901200726 34 197 1.6 1.6 0.00 0.00 0.00 62 1014.7
20260901200222 35 270 0.0 1.6 0.00 0.00 0.00 60 1014.8
20260901195719 34 189 1.6 1.6 0.00 0.00 0.00 62 1015.0
20260901195213 34 259 1.6 1.6 0.00 0.00 0.00 65 1014.9
20260901194710 34 211 0.0 1.6 0.00 0.00 0.00 62 1015.0
20260901194204 34 123 1.6 1.6 0.00 0.00 0.00 63 1014.9
20260901193701 33 114 1.6 3.2 0.00 0.00 0.00 62 1014.8
20260901193154 34 109 1.6 1.6 0.00 0.00 0.00 63 1015.1
20260901192649 33 183 3.2 3.2 0.00 0.00 0.00 63 1015.1
20260901192144 34 169 3.2 3.2 0.00 0.00 0.00 63 1015.1
20260901191640 34 183 1.6 1.6 0.00 0.00 0.00 62 1015.0
20260901191136 34 150 0.0 0.0 0.00 0.00 0.00 62 1015.0
20260901190631 33 139 1.6 3.2 0.00 0.00 0.00 64 1015.3
20260901190131 33 115 1.6 1.6 0.00 0.00 0.00 65 1015.1
20260901185629 33 178 1.6 1.6 0.00 0.00 0.00 63 1015.3
20260901185128 33 114 3.2 3.2 0.00 0.00 0.00 63 1015.4
20260901184624 33 165 3.2 3.2 0.00 0.00 0.00 64 1015.4
20260901184119 33 104 0.0 0.0 0.00 0.00 0.00 64 1015.5
20260901183614 33 234 1.6 1.6 0.00 0.00 0.00 62 1015.3
20260901183109 33 355 1.6 1.6 0.00 0.00 0.00 63 1015.5
20260901182606 33 112 1.6 3.2 0.00 0.00 0.00 61 1015.5
20260901182105 33 154 0.0 1.6 0.00 0.00 0.00 63 1015.4
20260901181604 33 121 1.6 1.6 0.00 0.00 0.00 64 1015.6
20260901181058 32 117 1.6 1.6 0.00 0.00 0.00 66 1015.5
20260901180557 32 85 0.0 0.0 0.00 0.00 0.00 64 1015.5
20260901180052 32 157 3.2 3.2 0.00 0.00 0.00 66 1015.5
20260901175546 32 184 3.2 3.2 0.00 0.00 0.00 67 1015.6
20260901175046 32 194 4.8 4.8 0.00 0.00 0.00 66 1015.6
20260901174541 32 129 4.8 4.8 0.00 0.00 0.00 63 1015.5
20260901174037 32 124 3.2 3.2 0.00 0.00 0.00 64 1015.8
20260901173532 32 202 3.2 4.8 0.00 0.00 0.00 67 1016.0
20260901173028 32 177 4.8 4.8 0.00 0.00 0.00 69 1015.7
20260901172524 32 164 3.2 3.2 0.00 0.00 0.00 70 1016.1
20260901172021 32 181 3.2 3.2 0.00 0.00 0.00 70 1015.9
20260901171521 32 187 3.2 3.2 0.00 0.00 0.00 70 1015.9
20260901171020 32 121 1.6 3.2 0.00 0.00 0.00 69 1016.0
20260901170515 32 169 0.0 1.6 0.00 0.00 0.00 71 1015.9
20260901170015 31 159 1.6 1.6 0.00 0.00 0.00 70 1016.1
20260901165509 31 147 3.2 3.2 0.00 0.00 0.00 70 1016.0
20260901165005 32 158 3.2 3.2 0.00 0.00 0.00 68 1016.1
20260901164500 31 180 1.6 3.2 0.00 0.00 0.00 71 1016.1
20260901163954 31 157 4.8 4.8 0.00 0.00 0.00 71 1016.0
20260901163450 32 176 3.2 3.2 0.00 0.00 0.00 69 1016.3
20260901162949 31 21 0.0 0.0 0.00 0.00 0.00 70 1016.3
20260901162444 31 138 1.6 1.6 0.00 0.00 0.00 70 1016.2
20260901161943 31 169 3.2 3.2 0.00 0.00 0.00 71 1016.5
20260901161443 31 98 1.6 3.2 0.00 0.00 0.00 70 1016.4
20260901160938 31 179 4.8 4.8 0.00 0.00 0.00 70 1016.6
20260901160434 31 175 4.8 4.8 0.00 0.00 0.00 70 1016.5
20260901155932 31 204 4.8 4.8 0.00 0.00 0.00 69 1016.6
20260901155427 31 172 4.8 4.8 0.00 0.00 0.00 70 1016.6
20260901154924 31 168 4.8 8.0 0.00 0.00 0.00 70 1016.8
20260901154423 31 158 3.2 3.2 0.00 0.00 0.00 72 1016.9
20260901153918 31 166 3.2 3.2 0.00 0.00 0.00 72 1017.0
20260901153417 31 135 1.6 3.2 0.00 0.00 0.00 72 1016.9
20260901152912 30 89 1.6 3.2 0.00 0.00 0.00 73 1017.1
20260901152407 30 167 3.2 3.2 0.00 0.00 0.00 73 1017.1
20260901151907 30 95 4.8 4.8 0.00 0.00 0.00 75 1017.2
20260901151407 30 106 4.8 4.8 0.00 0.00 0.00 76 1017.3
20260901150906 30 135 3.2 4.8 0.00 0.00 0.00 77 1017.2
20260901150404 29 125 4.8 8.0 0.00 0.00 0.00 77 1017.1
20260901145901 29 103 3.2 3.2 0.00 0.00 0.00 78 1017.4
20260901145356 29 180 1.6 3.2 0.00 0.00 0.00 79 1017.2
20260901144851 28 158 3.2 4.8 0.00 0.00 0.00 79 1017.2
20260901144347 28 178 1.6 3.2 0.00 0.00 0.00 82 1017.4
20260901143843 28 112 1.6 1.6 0.00 0.00 0.00 83 1017.2
20260901143338 28 151 3.2 3.2 0.00 0.00 0.00 85 1017.1
20260901142835 28 123 1.6 3.2 0.00 0.00 0.00 84 1017.2
20260901142333 28 157 3.2 3.2 0.00 0.00 0.00 84 1017.0
20260901141828 27 152 3.2 3.2 0.00 0.00 0.00 84 1017.0
20260901141323 28 159 1.6 3.2 0.00 0.00 0.00 85 1016.9
20260901140822 27 167 3.2 3.2 0.00 0.00 0.00 85 1017.0
20260901140315 27 49 1.6 1.6 0.00 0.00 0.00 86 1017.2
20260901135811 27 100 3.2 3.2 0.00 0.00 0.00 85 1016.9
20260901135310 27 178 1.6 1.6 0.00 0.00 0.00 85 1017.0
20260901134807 27 176 1.6 3.2 0.00 0.00 0.00 86 1017.2
20260901134307 27 159 3.2 3.2 0.00 0.00 0.00 86 1017.0
20260901133801 27 87 3.2 3.2 0.00 0.00 0.00 85 1017.2
20260901133300 27 159 4.8 4.8 0.00 0.00 0.00 85 1017.3
20260901132758 28 155 1.6 3.2 0.00 0.00 0.00 84 1017.4
20260901132254 27 129 3.2 3.2 0.00 0.00 0.00 85 1017.1
20260901131749 27 249 1.6 1.6 0.00 0.00 0.00 85 1017.2
20260901131248 27 163 3.2 4.8 0.00 0.00 0.00 85 1017.2
20260901130743 28 120 3.2 3.2 0.00 0.00 0.00 84 1017.2
20260901130242 27 139 3.2 3.2 0.00 0.00 0.00 84 1017.0
20260901125740 27 38 0.0 0.0 0.00 0.00 0.00 85 1017.3
20260901125230 27 137 1.6 1.6 0.00 0.00 0.00 86 1017.1
20260901124730 26 159 1.6 1.6 0.00 0.00 0.00 87 1017.2
20260901124224 26 17 0.0 0.0 0.00 0.00 0.00 87 1017.1
20260901123718 26 355 1.6 1.6 0.00 0.00 0.00 89 1017.0
20260901123214 26 281 0.0 0.0 0.00 0.00 0.00 89 1017.1
20260901122712 26 106 0.0 0.0 0.00 0.00 0.00 89 1017.2
20260901122207 26 7 0.0 0.0 0.00 0.00 0.00 90 1016.9
20260901121701 25 170 4.8 8.0 0.00 0.00 0.00 90 1017.0
20260901121157 25 92 0.0 0.0 0.00 0.00 0.00 92 1016.9
20260901120656 25 189 3.2 3.2 0.00 0.00 0.00 92 1016.8
20260901120151 25 125 0.0 0.0 0.00 0.00 0.00 92 1016.8
20260901115647 25 217 0.0 0.0 0.00 0.00 0.00 93 1016.9
20260901115143 25 251 0.0 0.0 0.00 0.00 0.00 93 1017.0
20260901114639 25 179 0.0 0.0 0.00 0.00 0.00 93 1016.6
20260901114139 25 105 0.0 0.0 0.00 0.00 0.00 93 1016.9
20260901113638 25 110 0.0 0.0 0.00 0.00 0.00 94 1016.8
20260901113133 25 214 1.6 3.2 0.00 0.00 0.00 94 1016.5
20260901112633 25 277 0.0 0.0 0.00 0.00 0.00 95 1016.5
20260901112127 24 143 0.0 1.6 0.00 0.00 0.00 95 1016.4
20260901111626 24 87 0.0 0.0 0.00 0.00 0.00 95 1016.5
20260901111125 24 107 0.0 0.0 0.00 0.00 0.00 95 1016.0
20260901110621 24 64 0.0 0.0 0.00 0.00 0.00 95 1016.4
20260901110116 24 28 0.0 0.0 0.00 0.00 0.00 95 1016.4
20260901105613 24 130 0.0 0.0 0.00 0.00 0.00 95 1016.2
20260901105112 24 348 0.0 0.0 0.00 0.00 0.00 95 1016.4
20260901104608 24 355 0.0 0.0 0.00 0.00 0.00 95 1016.2
20260901104103 24 358 0.0 0.0 0.00 0.00 0.00 95 1016.3
20260901103557 24 124 0.0 0.0 0.00 0.00 0.00 95 1016.1
20260901103053 24 237 3.2 3.2 0.00 0.00 0.00 95 1016.1
20260901102552 24 315 0.0 0.0 0.00 0.00 0.00 95 1016.3
20260901102047 24 304 0.0 0.0 0.00 0.00 0.00 95 1016.2
20260901101543 24 318 0.0 0.0 0.00 0.00 0.00 95 1016.2
20260901101042 24 323 0.0 0.0 0.00 0.00 0.00 95 1016.2
20260901100537 24 322 0.0 0.0 0.00 0.00 0.00 95 1016.4
20260901100036 24 337 0.0 0.0 0.00 0.00 0.00 95 1016.1
20260901095535 24 342 0.0 0.0 0.00 0.00 0.00 94 1016.2
20260901095033 24 339 0.0 0.0 0.00 0.00 0.00 94 1016.3
20260901094528 24 342 0.0 0.0 0.00 0.00 0.00 94 1016.2
20260901094027 24 342 0.0 0.0 0.00 0.00 0.00 94 1016.1
20260901093522 24 264 0.0 0.0 0.00 0.00 0.00 94 1016.2
20260901093017 24 264 0.0 0.0 0.00 0.00 0.00 94 1016.2
20260901092513 25 264 0.0 0.0 0.00 0.00 0.00 94 1016.5
20260901092009 25 294 0.0 0.0 0.00 0.00 0.00 94 1016.1
20260901091504 25 326 0.0 0.0 0.00 0.00 0.00 94 1016.1
20260901091004 25 80 0.0 0.0 0.00 0.00 0.00 94 1016.3
20260901090504 25 84 0.0 0.0 0.00 0.00 0.00 94 1016.3
20260901085959 25 340 0.0 0.0 0.00 0.00 0.00 94 1016.4
20260901085455 25 337 0.0 0.0 0.00 0.00 0.00 94 1016.3
20260901084951 25 347 0.0 0.0 0.00 0.00 0.00 94 1016.2
20260901084446 25 260 0.0 0.0 0.00 0.00 0.00 94 1016.4
20260901083942 25 298 0.0 0.0 0.00 0.00 0.00 94 1016.3
20260901083437 25 311 0.0 0.0 0.00 0.00 0.00 94 1016.2
20260901082935 25 34 0.0 0.0 0.00 0.00 0.00 94 1016.6
20260901082430 25 352 0.0 1.6 0.00 0.00 0.00 94 1016.6
20260901081925 25 324 0.0 0.0 0.00 0.00 0.00 94 1016.6
20260901081420 25 14 0.0 1.6 0.00 0.00 0.00 94 1016.3
20260901080915 25 353 0.0 0.0 0.00 0.00 0.00 94 1016.6
20260901080409 25 256 0.0 0.0 0.00 0.00 0.00 94 1016.6
20260901075904 25 323 0.0 0.0 0.00 0.00 0.00 94 1016.6
20260901075359 25 330 0.0 1.6 0.00 0.00 0.00 94 1016.5
20260901074853 25 43 0.0 0.0 0.00 0.00 0.00 94 1016.6
20260901074348 25 354 0.0 0.0 0.00 0.00 0.00 94 1016.8
20260901073843 25 356 0.0 0.0 0.00 0.00 0.00 94 1016.5
20260901073339 25 316 0.0 0.0 0.00 0.00 0.00 93 1016.9
20260901072835 25 130 0.0 0.0 0.00 0.00 0.00 93 1016.8
20260901072335 25 167 0.0 0.0 0.00 0.00 0.00 93 1016.7
20260901071830 25 140 0.0 0.0 0.00 0.00 0.00 93 1017.0
20260901071328 25 129 0.0 0.0 0.00 0.00 0.00 93 1016.9
20260901070827 25 137 0.0 0.0 0.00 0.00 0.00 93 1017.0
20260901070323 25 352 0.0 0.0 0.00 0.00 0.00 93 1017.0
20260901065822 25 85 0.0 0.0 0.00 0.00 0.00 93 1016.9
20260901065317 25 292 0.0 0.0 0.00 0.00 0.00 93 1016.9
20260901064813 25 279 1.6 1.6 0.00 0.00 0.00 93 1016.9
20260901064309 25 233 1.6 1.6 0.00 0.00 0.00 93 1017.0
20260901063807 25 34 0.0 0.0 0.00 0.00 0.00 93 1016.9
20260901063303 25 58 0.0 0.0 0.00 0.00 0.00 93 1016.9
20260901062758 25 298 0.0 0.0 0.00 0.00 0.00 93 1016.9
20260901062254 25 311 0.0 0.0 0.00 0.00 0.00 93 1016.8
20260901061749 25 288 0.0 1.6 0.00 0.00 0.00 92 1017.3
20260901061249 25 276 1.6 1.6 0.00 0.00 0.00 92 1017.0
20260901060744 25 341 1.6 1.6 0.00 0.00 0.00 92 1017.2
20260901060240 25 323 0.0 0.0 0.00 0.00 0.00 92 1017.2
20260901055735 25 289 0.0 1.6 0.00 0.00 0.00 92 1017.3
20260901055232 25 353 3.2 3.2 0.00 0.00 0.00 91 1017.4
20260901054728 26 358 0.0 0.0 0.00 0.00 0.00 91 1017.3
20260901054225 26 331 0.0 0.0 0.00 0.00 0.00 91 1017.4
20260901053720 26 296 1.6 1.6 0.00 0.00 0.00 92 1017.5
20260901053215 25 268 1.6 1.6 0.00 0.00 0.00 92 1017.6
20260901052711 25 359 1.6 3.2 0.00 0.00 0.00 92 1017.5
20260901052207 25 349 0.0 0.0 0.00 0.00 0.00 91 1017.4
20260901051705 25 349 0.0 0.0 0.00 0.00 0.00 91 1017.2
20260901051205 25 359 0.0 1.6 0.00 0.00 0.00 91 1017.5
20260901050700 25 354 0.0 0.0 0.00 0.00 0.00 91 1017.6
20260901050155 26 351 3.2 3.2 0.00 0.00 0.00 91 1017.2
20260901045650 25 267 0.0 1.6 0.00 0.00 0.00 91 1017.4
20260901045145 25 336 0.0 0.0 0.00 0.00 0.00 91 1017.6
20260901044640 25 303 0.0 0.0 0.00 0.00 0.00 92 1017.4
20260901044137 25 230 0.0 0.0 0.00 0.00 0.00 92 1017.4
20260901043632 25 323 1.6 1.6 0.00 0.00 0.00 93 1017.3
20260901043128 25 291 0.0 0.0 0.00 0.00 0.00 93 1017.4
20260901042626 25 120 1.6 1.6 0.00 0.00 0.00 94 1017.5
20260901042122 25 242 1.6 1.6 0.00 0.00 0.00 94 1017.3
20260901041617 25 323 0.0 1.6 0.00 0.00 0.00 94 1017.2
20260901041113 25 303 0.0 0.0 0.00 0.00 0.00 93 1017.7
20260901040612 25 281 0.0 0.0 0.00 0.00 0.00 93 1017.1
20260901040106 25 351 0.0 0.0 0.00 0.00 0.00 93 1017.5
20260901035604 25 354 0.0 0.0 0.00 0.00 0.00 93 1017.3
20260901035103 25 7 0.0 0.0 0.00 0.00 0.00 93 1017.0
20260901034603 25 13 0.0 0.0 0.00 0.00 0.00 93 1017.0
20260901034058 25 51 0.0 0.0 0.00 0.00 0.00 93 1017.0
20260901033556 25 346 0.0 0.0 0.00 0.00 0.00 93 1017.3
20260901033051 25 337 0.0 0.0 0.00 0.00 0.00 92 1017.2
20260901032550 25 343 0.0 0.0 0.00 0.00 0.00 92 1017.3
20260901032045 25 355 0.0 0.0 0.00 0.00 0.00 92 1017.2
20260901031540 25 348 0.0 1.6 0.00 0.00 0.00 92 1017.3
20260901031036 25 348 1.6 1.6 0.00 0.00 0.00 92 1017.3
20260901030536 25 336 0.0 0.0 0.00 0.00 0.00 91 1017.3
20260901030031 25 14 0.0 0.0 0.00 0.00 0.00 91 1017.0
20260901025530 25 352 0.0 0.0 0.00 0.00 0.00 91 1017.4
20260901025025 25 27 0.0 0.0 0.00 0.00 0.00 90 1017.2
20260901024520 26 355 0.0 0.0 0.00 0.00 0.00 89 1017.3
20260901024019 26 346 0.0 1.6 0.00 0.00 0.00 89 1017.2
20260901023513 26 154 1.6 3.2 0.00 0.00 0.00 89 1017.4
20260901023008 26 34 0.0 0.0 0.00 0.00 0.00 88 1017.3
20260901022503 26 258 0.0 0.0 0.00 0.00 0.00 88 1017.3
20260901021958 26 162 1.6 1.6 0.00 0.00 0.00 87 1017.3
20260901021454 26 65 0.0 0.0 0.00 0.00 0.00 87 1017.4
20260901020949 26 89 0.0 0.0 0.00 0.00 0.00 87 1017.5
20260901020444 26 204 0.0 1.6 0.00 0.00 0.00 86 1017.4
20260901015943 26 184 0.0 1.6 0.00 0.00 0.00 87 1017.3
20260901015440 27 23 0.0 0.0 0.00 0.00 0.00 87 1017.4
20260901014939 27 140 0.0 0.0 0.00 0.00 0.00 87 1017.3
20260901014435 27 153 0.0 0.0 0.00 0.00 0.00 87 1017.3
20260901013930 27 150 0.0 0.0 0.00 0.00 0.00 87 1017.3
20260901013426 27 153 0.0 1.6 0.00 0.00 0.00 86 1017.2
20260901012922 27 149 1.6 1.6 0.00 0.00 0.00 86 1017.0
20260901012416 27 148 1.6 3.2 0.00 0.00 0.00 85 1017.3
20260901011912 27 130 3.2 3.2 0.00 0.00 0.00 84 1017.1
20260901011408 27 149 1.6 3.2 0.00 0.00 0.00 84 1016.9
20260901010906 27 148 3.2 3.2 0.00 0.00 0.00 84 1016.9
20260901010401 27 127 3.2 3.2 0.00 0.00 0.00 85 1016.9
20260901005900 27 149 1.6 1.6 0.00 0.00 0.00 85 1016.7
20260901005355 27 126 1.6 1.6 0.00 0.00 0.00 86 1017.0
20260901004850 27 139 1.6 1.6 0.00 0.00 0.00 85 1016.7
20260901004349 27 132 1.6 1.6 0.00 0.00 0.00 85 1016.9
20260901003844 27 152 1.6 3.2 0.00 0.00 0.00 85 1016.8
20260901003339 28 141 1.6 1.6 0.00 0.00 0.00 85 1016.6
20260901002838 28 137 1.6 1.6 0.00 0.00 0.00 84 1016.4
20260901002337 28 141 1.6 1.6 0.00 0.00 0.00 85 1016.7
20260901001832 28 139 1.6 1.6 0.00 0.00 0.00 84 1016.6
20260901001327 28 151 1.6 1.6 0.00 0.00 0.00 84 1016.5
20260901000823 28 135 0.0 0.0 0.00 0.00 0.00 84 1016.6
20260901000318 28 148 1.6 1.6 0.00 0.00 0.00 83 1016.5
20260831235816 28 162 1.6 3.2 0.00 0.00 0.00 83 1016.7
20260831235312 28 143 1.6 1.6 0.00 0.00 0.00 83 1016.4
20260831234808 28 154 3.2 3.2 0.00 0.00 0.00 83 1016.5
20260831234307 28 132 3.2 3.2 0.00 0.00 0.00 83 1016.4
20260831233803 27 148 0.0 0.0 0.00 0.00 0.00 85 1016.2
20260831233258 27 61 0.0 0.0 0.00 0.00 0.00 88 1016.2
20260831232752 27 300 0.0 0.0 0.00 0.00 0.00 88 1016.4
20260831232249 27 252 0.0 0.0 0.00 0.00 0.00 88 1016.2
20260831231744 27 252 0.0 0.0 0.00 0.00 0.00 87 1016.4
20260831231241 27 251 0.0 0.0 0.00 0.00 0.00 87 1016.3
20260831230736 27 264 0.0 0.0 0.00 0.00 0.00 86 1016.4
20260831230231 27 16 0.0 0.0 0.00 0.00 0.00 85 1016.2
20260831225730 28 16 1.6 1.6 0.00 0.00 0.00 84 1016.2
20260831225226 28 358 1.6 1.6 0.00 0.00 0.00 83 1016.5
20260831224720 28 17 0.0 1.6 0.00 0.00 0.00 83 1016.6
20260831224216 28 0 1.6 1.6 0.00 0.00 0.00 82 1016.5
20260831223711 28 36 0.0 0.0 0.00 0.00 0.00 82 1016.7
20260831223208 28 6 0.0 0.0 0.00 0.00 0.00 82 1016.8
20260831222703 28 81 1.6 1.6 0.00 0.00 0.00 82 1016.5
20260831222159 28 26 1.6 1.6 0.00 0.00 0.00 81 1016.5
20260831221654 28 23 0.0 0.0 0.00 0.00 0.00 80 1016.5
20260831221149 28 12 1.6 1.6 0.00 0.00 0.00 80 1016.6
20260831220644 28 13 1.6 1.6 0.00 0.00 0.00 79 1016.5
20260831220139 28 56 0.0 0.0 0.00 0.00 0.00 79 1016.5
20260831215635 28 12 1.6 1.6 0.00 0.00 0.00 78 1016.6
20260831215130 28 23 0.0 0.0 0.00 0.00 0.00 78 1016.4
20260831214627 29 28 0.0 0.0 0.00 0.00 0.00 77 1016.4
20260831214123 29 58 0.0 0.0 0.00 0.00 0.00 77 1016.3
20260831213620 29 49 0.0 0.0 0.00 0.00 0.00 77 1016.6
20260831213115 30 25 0.0 0.0 0.00 0.00 0.00 74 1016.3
20260831212611 30 32 0.0 1.6 0.00 0.00 0.00 74 1016.2
20260831212107 30 325 1.6 1.6 0.00 0.00 0.00 75 1016.6
20260831211607 30 45 0.0 0.0 0.00 0.00 0.00 74 1016.6
20260831211106 30 15 1.6 1.6 0.00 0.00 0.00 73 1016.4
20260831210601 30 96 3.2 3.2 0.00 0.00 0.00 70 1016.6